Theta_e
322 322 322 321 321 321 321 320 320 320 320 320 320 321 321 322 321 324 325 326 325 325 326 326 327 327 326 326 326 325 325 325 324 325 324 323 322 322 321 320 319 319
321 321 320 320 320 320 320 320 320 320 320 320 321 321 321 319 320 321 324 325 325 325 326 326 326 326 327 326 326 326 325 325 324 325 324 322 322 322 321 321 320 319
320 320 320 319 320 320 320 320 320 321 320 321 321 321 321 318 319 320 321 323 324 325 325 326 326 326 326 326 326 325 324 324 324 324 322 322 322 321 321 321 320 319
317 319 320 320 320 320 319 318 319 319 319 319 319 320 320 320 319 320 320 316 322 323 324 325 325 326 326 326 326 325 325 324 324 324 323 322 320 320 320 320 320 320
312 314 315 317 316 316 315 318 318 318 318 319 318 317 316 317 318 319 319 320 321 321 323 323 325 325 325 325 325 324 324 323 323 323 322 322 323 322 322 321 319 318
305 307 308 310 312 313 314 315 316 316 316 315 316 314 316 316 316 316 316 317 318 319 320 322 323 323 324 324 324 323 323 322 322 322 321 320 319 319 320 320 319 317
300 301 302 303 305 305 306 308 308 307 311 312 308 312 313 313 314 315 315 316 317 316 318 320 321 322 322 323 322 321 320 320 320 320 319 319 319 318 317 318 317 317
299 299 300 300 301 301 301 302 302 302 304 302 304 308 306 310 311 312 312 314 315 317 317 318 320 321 321 321 320 320 320 320 320 318 317 317 318 318 317 315 314 315
296 296 295 295 296 295 295 295 295 294 295 297 300 301 300 303 306 308 310 312 314 314 316 317 318 319 320 319 318 317 318 317 317 317 317 316 315 315 315 314 313 313
290 288 288 289 291 291 291 292 294 295 294 294 298 297 300 302 301 305 307 309 310 311 312 314 316 317 317 318 319 318 317 317 315 315 314 314 314 313 311 309 309 307
286 286 288 289 290 292 293 293 295 295 295 296 297 300 303 302 303 302 305 308 310 311 312 311 312 314 315 315 315 315 316 315 314 313 313 312 312 313 306 310 309 309
289 290 292 291 291 293 294 295 297 299 299 300 300 305 303 303 304 305 303 305 306 307 306 305 305 308 310 312 313 313 313 314 314 313 312 311 311 311 311 310 310 309
294 293 294 294 293 294 294 296 297 296 297 298 297 297 299 300 301 302 303 303 305 304 303 305 308 308 308 309 310 310 310 310 309 310 310 310 310 311 310 310 310 310
294 294 293 295 295 296 296 295 295 295 295 295 294 295 296 297 298 300 300 299 301 302 304 302 303 305 307 308 309 309 309 309 309 309 309 308 307 307 307 307 308 308
292 293 294 294 293 293 294 294 294 293 292 291 291 293 294 294 294 295 295 298 297 296 298 298 300 302 302 303 304 305 306 307 307 306 305 305 304 303 301 302 302 302
292 293 293 292 291 292 292 290 289 289 289 289 291 290 290 289 289 290 292 293 295 296 294 296 298 300 297 296 297 302 304 305 305 304 302 301 299 299 297 296 297 298
292 291 292 293 293 290 289 289 289 288 288 288 288 288 289 288 289 291 291 291 291 291 292 294 295 297 294 296 297 297 298 301 303 303 301 297 296 296 297 295 294 294
291 291 292 290 289 289 288 288 287 288 288 288 288 288 288 288 289 289 289 289 290 290 290 291 292 292 294 295 295 296 295 297 299 299 299 296 294 294 295 293 292 292
290 291 290 288 288 288 287 288 288 288 288 288 288 287 287 288 288 288 288 288 288 290 290 290 290 292 293 294 294 295 295 295 296 296 294 294 292 293 293 292 291 291
290 289 289 288 288 288 288 288 288 288 287 287 287 287 287 287 287 287 287 287 287 288 288 288 289 290 293 293 293 294 295 295 295 294 292 292 292 292 292 291 291 291
289 289 289 288 288 287 288 288 287 287 287 287 288 288 288 287 287 287 287 287 287 287 287 288 289 291 292 292 293 293 294 294 293 292 291 290 290 290 290 290 290 290
288 288 288 287 287 287 287 287 286 287 287 287 287 287 287 287 287 287 287 287 287 287 287 288 288 290 291 291 292 293 294 292 291 290 289 289 289 289 289 289 289 289
287 288 287 287 287 287 287 287 287 287 287 287 287 287 287 287 287 287 287 287 287 287 287 287 288 289 290 291 292 293 292 289 289 290 289 288 288 288 288 288 288 288
287 287 287 286 287 287 287 287 286 287 287 287 287 287 287 287 286 287 286 286 286 287 287 287 287 287 289 290 291 292 291 289 288 289 288 288 287 286 287 287 287 287
287 287 287 286 287 287 287 287 287 287 286 286 286 287 286 286 286 287 286 286 286 286 286 286 287 287 288 290 291 292 289 287 288 288 288 287 287 286 286 286 286 286
287 287 286 287 287 287 286 287 286 286 286 286 286 286 286 286 286 286 286 286 286 286 286 286 286 287 287 289 290 291 291 288 287 288 288 287 287 286 287 286 285 285
Wind_Speed
10 8 10 10 10 10 10 10 8 8 9 8 9 9 9 8 6 8 9 10 11 12 12 12 11 11 10 11 11 11 11 12 12 11 12 12 12 13 14 15 15 14
11 10 9 9 9 9 8 7 7 9 9 9 8 8 8 6 7 8 9 10 10 12 12 12 12 12 12 10 10 11 11 11 13 9 11 13 11 12 15 16 15 14
9 9 9 10 10 9 9 8 9 9 8 8 8 7 7 5 7 7 9 10 11 11 12 12 13 13 14 14 13 12 11 11 12 10 11 12 11 13 14 13 12 13
7 8 8 9 8 8 6 6 7 7 7 7 8 8 8 7 7 8 8 9 10 10 10 11 12 12 12 12 14 14 14 13 11 10 11 10 10 9 10 8 10 12
5 5 5 6 5 5 4 6 8 7 7 9 7 6 7 7 7 8 8 9 9 10 10 11 11 11 11 10 11 11 12 12 11 10 10 11 11 13 15 13 13 12
2 2 3 4 4 4 5 6 6 5 6 6 7 6 6 6 7 8 8 9 8 9 10 10 10 10 11 11 9 9 10 11 12 14 14 13 10 8 8 11 13 13
3 3 3 2 3 3 4 5 4 4 5 5 4 6 5 7 7 8 8 8 9 9 9 9 10 10 10 11 12 11 8 7 9 9 11 10 11 12 9 9 11 13
1 1 1 1 2 2 4 4 4 4 4 3 4 5 4 6 6 6 6 7 8 8 8 9 9 10 9 9 10 13 13 9 9 9 8 9 10 14 13 10 8 10
0 1 1 1 1 2 3 3 3 3 3 3 4 4 4 4 5 5 6 6 7 7 8 8 9 10 10 10 10 10 12 11 8 8 10 11 11 10 10 9 10 10
0 1 1 2 2 2 3 3 3 3 3 2 3 3 4 4 4 4 5 6 6 6 7 8 9 10 10 10 13 11 9 10 10 9 9 9 9 10 9 9 10 8
1 2 2 3 2 2 3 2 2 3 3 3 3 4 4 3 4 3 4 5 6 8 8 8 8 8 9 8 7 8 9 9 8 8 8 8 8 9 9 10 10 12
0 1 1 1 1 2 2 2 2 2 3 3 3 5 5 5 4 4 4 4 4 5 4 4 4 5 6 7 7 7 8 9 9 8 8 8 9 8 8 9 10 10
0 1 2 2 3 3 3 3 2 1 2 2 2 3 3 4 3 3 4 4 4 4 4 4 5 4 5 6 6 6 6 6 6 7 7 8 9 9 9 9 10 10
1 1 2 2 3 3 4 3 2 3 3 3 3 3 3 3 3 3 3 3 3 4 4 4 4 4 5 5 5 6 6 6 7 8 9 9 8 8 7 9 10 11
3 2 2 3 3 2 3 3 3 3 3 3 3 3 3 3 3 2 3 4 3 3 3 3 3 4 4 4 5 6 6 7 7 7 7 7 7 7 6 6 6 6
2 2 2 1 2 2 3 2 2 3 3 3 3 2 3 2 3 2 2 3 4 5 4 4 4 3 5 9 8 6 6 6 6 6 6 6 7 7 6 5 6 6
2 2 1 2 3 2 3 3 3 2 2 2 2 3 3 3 2 3 2 1 2 3 4 4 3 3 6 8 8 9 6 6 7 7 6 5 5 6 7 7 6 5
3 2 2 3 2 3 2 2 2 1 2 2 2 3 2 2 3 3 3 3 3 3 3 4 5 6 8 9 10 10 8 5 5 6 6 5 5 5 6 5 5 5
4 3 3 2 2 2 1 1 0 1 2 2 2 2 2 3 3 3 3 3 3 4 4 4 4 6 9 9 8 8 9 7 5 5 5 5 4 5 5 5 4 5
4 3 3 2 1 1 0 0 1 1 1 1 1 2 3 3 2 3 2 3 3 3 3 3 4 6 8 9 9 10 10 8 5 4 4 5 5 5 4 5 5 6
2 2 2 1 1 1 0 1 2 2 2 2 1 2 2 2 3 3 3 3 3 3 4 4 4 7 9 9 9 8 8 6 4 4 4 3 3 3 3 3 4 4
3 2 2 1 1 0 1 1 1 1 2 2 2 2 2 3 4 3 4 5 4 4 5 5 5 9 9 9 10 10 9 5 3 2 3 3 3 2 2 3 2 2
2 2 2 2 1 1 0 1 1 2 2 1 2 3 3 4 3 3 3 4 5 4 5 5 5 8 10 10 10 10 7 3 2 2 2 2 2 1 1 0 0 0
3 3 2 2 2 1 0 1 1 1 2 1 2 3 3 3 3 3 3 3 4 5 5 5 5 8 11 11 11 12 7 3 3 2 2 2 2 2 2 2 2 2
3 3 3 3 3 2 1 2 2 2 1 2 2 2 3 2 3 3 3 4 4 4 6 6 5 7 9 10 10 10 6 3 3 3 3 3 3 3 2 2 2 2
3 4 3 4 4 4 4 3 2 3 3 3 3 3 3 3 3 4 5 4 4 5 5 4 6 6 7 11 11 11 10 4 3 3 4 4 3 3 4 3 3 3
Wind_Direction
225 223 226 225 230 231 232 228 226 232 236 235 235 240 238 240 229 224 226 227 228 233 236 238 237 236 235 234 231 233 234 236 237 233 232 228 228 226 228 225 216 213
221 220 223 226 233 231 237 234 235 230 237 236 236 239 238 231 227 222 226 229 229 230 232 233 234 234 234 234 233 236 239 238 239 229 232 228 228 228 231 228 222 218
223 222 223 227 232 235 232 228 232 237 238 240 243 241 245 226 231 219 224 225 228 230 229 231 232 231 230 229 228 233 240 243 243 235 233 231 224 222 225 224 227 224
229 228 230 233 235 240 237 235 238 238 240 245 238 235 232 233 225 227 227 225 230 232 231 231 232 233 233 233 229 230 231 235 238 237 237 232 228 233 236 230 229 225
231 238 239 244 244 241 233 234 239 233 233 238 241 235 234 231 228 230 227 227 226 231 230 231 230 232 233 239 237 237 232 234 229 230 236 239 235 228 225 217 222 230
271 261 265 250 248 239 240 239 240 238 241 245 240 238 236 231 232 230 228 230 226 228 231 232 233 234 234 238 241 246 240 233 227 224 229 235 247 254 255 232 218 216
243 248 253 246 257 244 242 251 252 248 250 241 250 245 233 236 236 233 232 231 231 229 231 232 233 235 233 235 235 241 248 246 245 236 237 241 239 246 243 246 238 222
258 270 262 301 261 254 246 246 242 243 247 278 248 255 236 240 239 238 235 234 233 233 231 234 237 239 236 235 240 238 240 241 244 235 241 247 247 238 228 221 230 241
205 322 4 345 315 292 281 276 276 278 285 259 265 267 267 248 247 244 238 236 235 235 236 234 234 235 232 231 234 237 237 232 231 239 243 245 239 241 240 233 224 222
54 23 34 22 1 342 327 320 309 300 297 274 263 271 279 271 253 247 244 239 238 241 242 244 240 236 234 230 234 239 243 238 233 231 228 230 239 243 233 215 219 231
29 32 34 17 10 359 335 316 299 287 282 284 296 301 280 280 285 263 254 248 243 241 235 234 240 244 247 247 245 241 239 239 237 236 238 240 237 233 225 224 222 220
78 44 17 316 288 297 293 298 314 342 347 333 329 307 295 281 269 279 262 259 255 254 254 255 250 248 250 255 249 242 239 237 233 230 238 247 247 240 230 221 226 226
3 327 299 296 280 266 257 261 282 302 316 303 312 292 286 286 291 286 277 265 265 269 268 267 272 265 253 244 241 239 242 249 253 250 244 242 242 242 236 231 231 235
214 242 238 248 260 260 256 239 230 244 243 243 252 279 288 280 276 285 285 293 283 289 289 292 288 284 274 268 264 263 260 253 250 247 246 241 240 239 234 232 231 231
214 221 224 244 254 277 284 283 300 301 302 292 288 288 290 305 327 313 304 303 288 269 287 299 298 280 277 275 276 273 265 263 259 257 253 254 251 247 244 245 250 243
197 217 241 336 327 289 284 304 299 293 301 304 297 288 292 302 304 297 313 322 324 321 322 315 298 285 282 283 282 281 283 273 266 261 258 254 255 256 257 247 241 241
211 198 108 290 277 282 294 298 288 291 292 303 314 332 335 330 332 337 345 327 295 298 309 295 275 276 297 303 302 295 284 279 274 269 261 257 251 246 250 247 244 244
198 177 214 231 246 262 259 260 279 312 334 331 335 348 335 339 13 352 343 347 337 318 302 306 309 326 327 324 320 314 306 286 276 274 271 259 249 243 247 243 237 240
185 190 215 219 238 240 242 256 271 355 354 3 350 315 343 13 349 354 351 336 344 342 328 319 317 333 335 328 316 307 302 294 272 259 258 258 248 243 240 232 221 227
189 190 202 223 239 242 244 301 12 351 319 311 345 359 14 3 358 5 353 359 347 323 304 320 329 334 337 332 327 322 316 312 285 272 253 246 241 238 236 228 217 218
163 177 203 232 222 224 156 10 4 348 353 350 18 12 7 351 337 346 344 346 346 338 342 342 339 340 341 336 332 323 314 306 292 292 288 283 286 270 258 247 236 228
161 175 188 206 184 182 61 15 348 347 333 344 28 10 10 11 358 18 9 356 346 352 360 355 343 347 345 345 338 330 329 323 321 325 329 337 339 339 327 334 337 328
156 158 187 183 157 104 77 25 12 357 1 15 29 19 21 16 18 9 356 11 4 4 12 357 349 347 350 355 350 341 336 348 15 20 31 32 27 25 37 47 72 120
152 165 166 155 135 138 93 360 29 27 17 11 49 26 24 19 16 20 15 18 18 14 12 9 350 350 359 1 3 1 12 16 30 31 29 31 4 14 13 9 3 345
148 147 149 142 139 123 130 72 66 69 26 53 47 53 45 20 33 42 25 20 15 13 14 19 356 352 357 1 5 12 27 20 26 28 10 2 358 343 7 10 357 22
123 133 144 144 131 118 105 94 96 80 61 75 50 57 54 38 39 42 40 19 8 11 13 12 9 358 359 360 8 10 14 19 11 12 353 345 345 336 326 331 350 340